This is the latest recevied weather packets stored in our database for station/object 4S6DRJ-13. If no packets are shown the sender has not sent any weather packets the latest 10 day(s).
| Time | Temp. | Humidity | Pressure | Rain* | Wind** | Luminosity | Snow |
|---|---|---|---|---|---|---|---|
| 1787635517 | 30.56° C | 75% | 1011.4 hPa | 0 mm | 1.79 m/s, 37° | 363 W/m² | - |
| 1787635456 | 30° C | 76% | 1011.2 hPa | 0 mm | 1.34 m/s, 224° | 1118 W/m² | - |
| 1787635396 | 30° C | 76% | 1011.3 hPa | 0 mm | 0.89 m/s, 214° | 1116 W/m² | - |
| 1787635334 | 30° C | 76% | 1011.2 hPa | 0 mm | 1.79 m/s, 184° | 1122 W/m² | - |
| 1787635273 | 30° C | 74% | 1011.2 hPa | 0 mm | 2.24 m/s, 157° | 1117 W/m² | - |
| 1787635212 | 30° C | 77% | 1011.2 hPa | 0 mm | 1.79 m/s, 256° | 1109 W/m² | - |
| 1787635151 | 30° C | 76% | 1011.1 hPa | 0 mm | 1.79 m/s, 239° | 1107 W/m² | - |
| 1787635090 | 30° C | 76% | 1011.1 hPa | 0 mm | 1.79 m/s, 225° | 1110 W/m² | - |
| 1787635029 | 30° C | 76% | 1011.3 hPa | 0 mm | 1.34 m/s, 304° | 1108 W/m² | - |
| 1787634968 | 30° C | 76% | 1011.1 hPa | 0 mm | 1.79 m/s, 351° | 862 W/m² | - |
| 1787634907 | 30° C | 76% | 1011.1 hPa | 0 mm | 0.89 m/s, 226° | 1105 W/m² | - |
| 1787634846 | 30° C | 77% | 1011.1 hPa | 0 mm | 0.89 m/s, 249° | 359 W/m² | - |
| 1787634785 | 30° C | 77% | 1011.3 hPa | 0 mm | 0.89 m/s, 299° | 1111 W/m² | - |
| 1787634724 | 30° C | 77% | 1011.2 hPa | 0 mm | 1.34 m/s, 226° | 909 W/m² | - |
| 1787634663 | 30° C | 77% | 1011.1 hPa | 0 mm | 0.89 m/s, 272° | 372 W/m² | - |
| 1787634602 | 30° C | 77% | 1011.5 hPa | 0 mm | 1.79 m/s, 234° | 409 W/m² | - |
| 1787634541 | 29.44° C | 78% | 1011.1 hPa | 0 mm | 2.24 m/s, 191° | 647 W/m² | - |
| 1787634480 | 29.44° C | 78% | 1011.1 hPa | 0 mm | 0.89 m/s, 209° | 1116 W/m² | - |
| 1787634420 | 29.44° C | 78% | 1011.3 hPa | 0 mm | 1.34 m/s, 316° | 995 W/m² | - |
| 1787634359 | 29.44° C | 78% | 1011.3 hPa | 0 mm | 0 m/s | 1111 W/m² | - |
| 1787634297 | 29.44° C | 78% | 1011.4 hPa | 0 mm | 1.79 m/s, 147° | 927 W/m² | - |
| 1787634236 | 29.44° C | 78% | 1011.4 hPa | 0 mm | 1.79 m/s, 223° | 279 W/m² | - |
| 1787634175 | 29.44° C | 78% | 1011.4 hPa | 0 mm | 1.79 m/s, 301° | 915 W/m² | - |
| 1787634114 | 29.44° C | 77% | 1011.6 hPa | 0 mm | 1.34 m/s, 347° | 703 W/m² | - |
| 1787634053 | 29.44° C | 77% | 1011.5 hPa | 0 mm | 1.79 m/s, 308° | 594 W/m² | - |
* Rain latest hour (hover to see other rain measurements)
** Current wind speed in m/s (hover to see current wind gust speed)